User: anonymous   Login
Location: Lawrence
(38.9720°N, 95.2350°W)
Time: 05:52:32
(UTC-05:00)
Language:

ALOS - Orbit

View from above orbital plane
View from above orbital plane
View from above satellite
View from above satellite

Ground track
Ground track

The orbit data is extracted from the following two-line orbital elements,

1 28931U 06002A   17206.24996524 +.00000197 +00000-0 +47605-4 0  9991
2 28931 097.8419 231.6988 0001473 124.8649 235.2693 14.62371859613027
Epoch (UTC): 25 July 2017 05:59:56
Eccentricity: 0.0001473
inclination: 97.8419°
perigee height: 684 km
apogee height: 686 km
right ascension of ascending node: 231.6988°
argument of perigee: 124.8649°
revolutions per day: 14.62371859
mean anomaly at epoch: 235.2693°
orbit number at epoch: 61302

The dashed part of the orbit path shows where the satellite is in the earth's shadow,  

DLR